Weather History for KCCR - May, 2013

Change the Weather History Date:

Monday, May 27, 2013

  Actual Average Record
Temperature  
Mean Temperature 59 °F 66 °F  
Max Temperature 65 °F 78 °F 94 °F (2003)
Min Temperature 52 °F 53 °F 47 °F (2010)
Degree Days  
Heating Degree Days 6    
Month to date heating degree days 53  
Since 1 July heating degree days 2404  
Cooling Degree Days 0    
Month to date cooling degree days 53  
Year to date cooling degree days 81  
Growing Degree Days 8 (Base 50)    
Moisture  
Dew Point 51 °F    
Average Humidity 71    
Maximum Humidity 86    
Minimum Humidity 56    
Precipitation  
Precipitation 0.02 in - 0.05 in (1993)
Month to date precipitation 0.02  
Year to date precipitation 1.94  
Since 1 July precipitation 11.58  
Sea Level Pressure  
Sea Level Pressure 30.04 in    
Wind  
Wind Speed 10 mph (SW)    
Max Wind Speed 18 mph    
Max Gust Speed 24 mph    
Visibility 10 miles    
Events Rain    
T = Trace of Precipitation, MM = Missing Value Source: NWS Daily Summary

Daily Weather History Graph

Daily Weather History Graph

Search for Another Location

Airport or City:

Trip Planner

Search our weather history database for the weather conditions in past years. The results will help you decide how hot, cold, wet, or windy it might be!

Date:

Astronomy

May. 27, 2013 Rise Set
Actual Time 5:49 AM PDT 8:21 PM PDT
Civil Twilight 5:18 AM PDT 8:52 PM PDT
Nautical Twilight 4:41 AM PDT 9:30 PM PDT
Astronomical Twilight 3:59 AM PDT 10:12 PM PDT
Moon 11:06 PM PDT (5/27) 8:32 AM PDT (5/27)
Length of Visible Light 15h 33m
Length of Day
14h 32m
Waning Gibbous, 90% of the Moon is Illuminated
May 27
Waning Gibbous
May 31
Last Quarter
Jun 8
New
Jun 16
First Quarter
Jun 23
Full

Hourly Weather History & Observations

Time (PDT) Temp. Dew Point Humidity Pressure Visibility Wind Dir Wind Speed Gust Speed Precip Events Conditions
12:53 AM 54.0 °F 46.9 °F 77% 30.08 in 10.0 mi South 8.1 mph - N/A   Clear
1:53 AM 53.1 °F 48.0 °F 83% 30.07 in 10.0 mi SSW 11.5 mph - N/A   Clear
2:53 AM 53.1 °F 46.9 °F 80% 30.06 in 10.0 mi South 10.4 mph - N/A   Clear
3:53 AM 53.1 °F 46.9 °F 80% 30.05 in 10.0 mi South 9.2 mph - N/A   Clear
4:53 AM 52.0 °F 46.9 °F 83% 30.04 in 10.0 mi SSW 8.1 mph - N/A   Clear
5:53 AM 53.1 °F 46.9 °F 80% 30.04 in 10.0 mi SSW 6.9 mph - N/A   Clear
6:53 AM 55.0 °F 46.9 °F 74% 30.05 in 10.0 mi SSW 8.1 mph - N/A   Mostly Cloudy
7:53 AM 59.0 °F 51.1 °F 75% 30.05 in 10.0 mi West 10.4 mph - N/A   Mostly Cloudy
8:53 AM 62.1 °F 52.0 °F 70% 30.06 in 10.0 mi West 11.5 mph - N/A   Scattered Clouds
9:00 AM 62.6 °F 51.8 °F 68% 30.10 in 10.0 mi West 10.4 mph - N/A   Overcast
9:53 AM 62.1 °F 51.1 °F 67% 30.06 in 10.0 mi WNW 11.5 mph 19.6 mph N/A   Mostly Cloudy
10:53 AM 63.0 °F 50.0 °F 63% 30.04 in 10.0 mi WSW 12.7 mph 16.1 mph N/A   Mostly Cloudy
11:53 AM 64.0 °F 48.9 °F 58% 30.06 in 10.0 mi West 9.2 mph 24.2 mph N/A   Overcast
12:53 PM 61.0 °F 54.0 °F 78% 30.07 in 8.0 mi WSW 9.2 mph - 0.00 in Rain Light Rain
1:25 PM 62.6 °F 55.4 °F 77% 30.11 in 10.0 mi WSW 9.2 mph - 0.01 in Rain Light Rain
1:53 PM 63.0 °F 54.0 °F 72% 30.07 in 10.0 mi WSW 9.2 mph - 0.01 in   Mostly Cloudy
2:53 PM 63.0 °F 51.1 °F 65% 30.06 in 10.0 mi WSW 10.4 mph 16.1 mph N/A   Overcast
3:53 PM 61.0 °F 52.0 °F 72% 30.06 in 10.0 mi SW 11.5 mph - N/A   Overcast
4:53 PM 62.1 °F 51.1 °F 67% 30.05 in 10.0 mi WSW 13.8 mph - N/A   Overcast
5:53 PM 60.1 °F 51.1 °F 72% 30.04 in 10.0 mi WSW 13.8 mph - N/A   Overcast
6:53 PM 60.1 °F 51.1 °F 72% 30.02 in 10.0 mi SSW 9.2 mph - N/A   Mostly Cloudy
7:53 PM 60.1 °F 52.0 °F 75% 30.00 in 10.0 mi SSW 10.4 mph - N/A   Overcast
8:53 PM 59.0 °F 52.0 °F 78% 29.99 in 10.0 mi SSW 10.4 mph - N/A   Overcast
9:53 PM 57.9 °F 53.1 °F 84% 29.99 in 10.0 mi SSW 8.1 mph - N/A   Overcast
10:53 PM 57.9 °F 55.0 °F 90% 29.99 in 10.0 mi SSW 8.1 mph - 0.00 in Rain Light Rain
11:31 PM 57.2 °F 55.4 °F 94% 30.00 in 10.0 mi South 10.4 mph - 0.01 in Rain Light Rain
11:53 PM 57.0 °F 55.9 °F 96% 29.96 in 10.0 mi SSW 8.1 mph - 0.01 in   Overcast